User: anonymous   Login
Location: Carri�res
(48.9069°N, 2.1792°E)
Time: 21:57:28
(UTC+00:00)
Language:

GENESIS II - Orbit

View from above orbital plane
View from above orbital plane
View from above satellite
View from above satellite

Ground track
Ground track

The orbit data is extracted from the following two-line orbital elements,

1 31789U 07028A   21103.22342947  .00000280  00000-0  23922-4 0  9997
2 31789  64.5050  83.0809 0016920 206.0995 153.9276 15.17709659760654
Epoch (UTC): 13 April 2021 05:21:44
Eccentricity: 0.0016920
inclination: 64.5050°
perigee height: 501 km
apogee height: 524 km
right ascension of ascending node: 83.0809°
argument of perigee: 206.0995°
revolutions per day: 15.17709659
mean anomaly at epoch: 153.9276°
orbit number at epoch: 76065

The dashed part of the orbit path shows where the satellite is in the earth's shadow,  

DLR